Observations for Trim Patrick St
| Time | AQI | Temp °C | Hum % | Pres Pa | CO μg/m³ | H₂S μg/m³ | NO μg/m³ | NO₂ μg/m³ | O₃ μg/m³ | SO₂ μg/m³ | PM1 μg/m³ | PM2.5 μg/m³ | PM10 μg/m³ |
|---|---|---|---|---|---|---|---|---|---|---|---|---|---|
| Wednesday 26 August 2026 | |||||||||||||
| 20:24 | 3 | 21.1 | 65 | 81,156 | 0 | 22.32 | 0.77 | 63.84 | 51.46 | 4.13 | 12.29 | 19.4 | 21.34 |
| 20:23 | 3 | 21.1 | 64 | 80,280 | 0 | 22.09 | 1.13 | 69.87 | 45.02 | 4.33 | 9.71 | 16.5 | 18.15 |
| 20:22 | 3 | 21.2 | 64 | 79,573 | 0 | 21.77 | 1.07 | 55.42 | 69.88 | 4.21 | 10.57 | 17.23 | 18.96 |
| 20:21 | 3 | 21.2 | 64 | 79,034 | 0 | 21.72 | 1.24 | 49.86 | 63.27 | 5.07 | 8.86 | 14.33 | 15.76 |
| 20:20 | 3 | 21.3 | 64 | 78,613 | 0 | 22.54 | 1.16 | 53.07 | 63.71 | 5.38 | 10.57 | 16.54 | 18.19 |
| 20:19 | 3 | 21.3 | 64 | 78,202 | 0 | 21.24 | 1.1 | 46.19 | 86.59 | 4.39 | 8 | 13.63 | 14.99 |
| 20:18 | 3 | 21.4 | 64 | 77,827 | 0 | 20.93 | 0.74 | 40.69 | 74.68 | 5.66 | 10.57 | 18.78 | 20.66 |
| 20:17 | 3 | 21.5 | 64 | 77,524 | 0 | 22.06 | 0.49 | 49.72 | 76.19 | 4.86 | 10.57 | 18.05 | 19.86 |
| 20:16 | 3 | 21.5 | 63 | 77,227 | 0 | 21.77 | 0.42 | 45.73 | 73.56 | 4.94 | 10.57 | 18.06 | 19.87 |
| 20:15 | 3 | 21.6 | 63 | 76,954 | 0 | 22.96 | 0.35 | 48.95 | 87.21 | 4.72 | 10.57 | 17.34 | 19.07 |
| 20:14 | 3 | 21.7 | 63 | 76,696 | 0 | 23.09 | 0.39 | 51.8 | 101.73 | 4.84 | 11.43 | 18.1 | 19.91 |
| 20:13 | 3 | 21.7 | 63 | 76,486 | 0 | 21.82 | 0.55 | 41.24 | 79.27 | 5.4 | 9.71 | 15.93 | 17.53 |
| 20:12 | 3 | 21.8 | 62 | 76,303 | 0 | 22.75 | 0.66 | 44.84 | 106.59 | 4.42 | 10.57 | 17.45 | 19.19 |
| 20:11 | 3 | 21.9 | 62 | 76,108 | 0 | 22.4 | 0.61 | 44.05 | 97.43 | 3.63 | 13.14 | 18.93 | 20.82 |
| 20:10 | 3 | 21.9 | 61 | 75,935 | 0 | 22.46 | 0.64 | 46.98 | 121.37 | 3.41 | 11.43 | 18.31 | 20.14 |
| 20:09 | 3 | 22 | 61 | 75,772 | 0 | 23.27 | 0.61 | 48.38 | 106.15 | 4.81 | 12.29 | 19.75 | 21.73 |
| 20:08 | 3 | 22.1 | 62 | 75,623 | 0 | 23.38 | 0.6 | 50.15 | 92.58 | 5.74 | 10.57 | 18.24 | 20.07 |
| 20:07 | 3 | 22.1 | 61 | 75,499 | 0 | 22.35 | 0.76 | 49.06 | 97.49 | 4.8 | 11.43 | 17.53 | 19.29 |
| 20:06 | 3 | 22.2 | 61 | 75,381 | 0 | 22.3 | 0.91 | 42.76 | 91.14 | 4.93 | 10.57 | 16.82 | 18.5 |
| 20:05 | 3 | 22.3 | 61 | 75,277 | 0 | 22.32 | 0.98 | 41.95 | 101.31 | 4 | 9.71 | 14.64 | 16.1 |